Dublin, Ireland

12:04 AM GMT on January 23, 2017 (GMT +0000)
Dublin International

Weather History for EIDW - September, 2012

Change the Weather History Date:

Saturday, September 29, 2012

  Actual Average Record
Temperature  
Mean Temperature 50 °F -  
Max Temperature 57 °F 57 °F 71 °F (2011)
Min Temperature 42 °F 46 °F 42 °F (2005)
Degree Days  
Heating Degree Days 16    
Moisture  
Dew Point 44 °F    
Average Humidity 79    
Maximum Humidity 93    
Minimum Humidity 59    
Precipitation  
Precipitation 0.00 in 0.09 in - ()
Sea Level Pressure  
Sea Level Pressure 30.02 in    
Wind  
Wind Speed 15 mph ()    
Max Wind Speed 21 mph    
Max Gust Speed -    
Visibility 6.2 miles    
Events      
Averages and records for this station are not official NWS values.
T = Trace of Precipitation, MM = Missing Value Source: Averaged Metar Reports

Daily Weather History Graph

Daily Weather History Graph

Search for Another Location

Airport or City:

Trip Planner

Search our weather history database for the weather conditions in past years. The results will help you decide how hot, cold, wet, or windy it might be!

Date:

Astronomy

Sep. 29, 2012 Rise Set
Actual Time 7:23 AM IST 7:05 PM IST
Civil Twilight 6:48 AM IST 7:40 PM IST
Nautical Twilight 6:08 AM IST 8:20 PM IST
Astronomical Twilight 5:26 AM IST 9:02 PM IST
Moon 6:26 PM IST (9/29) 6:41 AM IST (9/29)
Length of Visible Light 12h 51m
Length of Day
11h 42m
Full, 100% of the Moon is Illuminated
Sep 29
Full
Sep 30
Full
Oct 8
Last Quarter
Oct 15
New
Oct 22
First Quarter

Hourly Weather History & Observations

Time (IST) Temp. Windchill Dew Point Humidity Pressure Visibility Wind Dir Wind Speed Gust Speed Precip Events Conditions
12:00 AM 46.4 °F 39.8 °F 42.8 °F 87% 29.92 in 6.2 mi West 16.1 mph - N/A   Partly Cloudy
12:30 AM 46.4 °F 39.5 °F 42.8 °F 87% 29.92 in 6.2 mi West 17.3 mph - N/A   Partly Cloudy
1:00 AM 45 °F - 42 °F 87% 29.94 in 22 mi WSW 15.7 mph - -   Scattered Clouds
1:00 AM 44.6 °F 37.4 °F 42.8 °F 93% 29.92 in 6.2 mi WSW 16.1 mph - N/A   Partly Cloudy
1:30 AM 44.6 °F 37.2 °F 42.8 °F 93% 29.95 in 6.2 mi West 17.3 mph - N/A   Partly Cloudy
2:00 AM 44.6 °F 37.2 °F 42.8 °F 93% 29.95 in 6.2 mi West 17.3 mph - N/A   Partly Cloudy
2:30 AM 44.6 °F 37.2 °F 42.8 °F 93% 29.95 in 6.2 mi West 17.3 mph - N/A   Partly Cloudy
3:00 AM 44.6 °F 36.9 °F 41.0 °F 87% 29.95 in 6.2 mi West 18.4 mph - N/A   Partly Cloudy
3:30 AM 44.6 °F 36.9 °F 41.0 °F 87% 29.95 in 6.2 mi West 18.4 mph - N/A   Partly Cloudy
4:00 AM 44.6 °F 37.2 °F 41.0 °F 87% 29.98 in 6.2 mi West 17.3 mph - N/A   Partly Cloudy
4:30 AM 44.6 °F 36.9 °F 41.0 °F 87% 29.98 in 6.2 mi West 18.4 mph - N/A   Partly Cloudy
5:00 AM 42.8 °F 34.5 °F 41.0 °F 93% 29.98 in 6.2 mi West 18.4 mph - N/A   Partly Cloudy
5:30 AM 42.8 °F 35.1 °F 41.0 °F 93% 29.98 in 6.2 mi West 16.1 mph - N/A   Partly Cloudy
6:00 AM 42.8 °F 34.8 °F 41.0 °F 93% 29.98 in 6.2 mi West 17.3 mph - N/A   Partly Cloudy
6:30 AM 44.6 °F 37.4 °F 41.0 °F 87% 30.01 in 6.2 mi West 16.1 mph - N/A   Partly Cloudy
7:00 AM 45 °F - 40 °F 75% 30.03 in 22 mi West 17.9 mph - -   Scattered Clouds
7:00 AM 44.6 °F 37.4 °F 41.0 °F 87% 30.01 in 6.2 mi West 16.1 mph - N/A   Partly Cloudy
7:30 AM 44.6 °F 37.2 °F 39.2 °F 81% 30.01 in 6.2 mi West 17.3 mph - N/A   Partly Cloudy
8:00 AM 44.6 °F 36.4 °F 39.2 °F 81% 30.04 in 6.2 mi West 20.7 mph - N/A   Partly Cloudy
8:30 AM 44.6 °F 36.9 °F 41.0 °F 87% 30.04 in 6.2 mi West 18.4 mph - N/A   Partly Cloudy
9:00 AM 46.4 °F 39.2 °F 41.0 °F 81% 30.04 in 6.2 mi West 18.4 mph - N/A   Scattered Clouds
9:30 AM 46.4 °F 39.5 °F 42.8 °F 87% 30.06 in 6.2 mi West 17.3 mph - N/A   Scattered Clouds
10:00 AM 50.0 °F - 42.8 °F 76% 30.06 in 6.2 mi West 17.3 mph - N/A   Partly Cloudy
10:30 AM 51.8 °F - 42.8 °F 71% 30.06 in 6.2 mi West 15.0 mph - N/A   Scattered Clouds
11:00 AM 51.8 °F - 44.6 °F 76% 30.06 in 6.2 mi West 17.3 mph - N/A   Scattered Clouds
11:30 AM 53.6 °F - 42.8 °F 67% 30.09 in 6.2 mi West 18.4 mph - N/A   Scattered Clouds
12:00 PM 53.6 °F - 44.6 °F 72% 30.09 in 6.2 mi West 17.3 mph - N/A   Mostly Cloudy
12:30 PM 55.4 °F - 44.6 °F 67% 30.09 in 6.2 mi West 17.3 mph - N/A   Scattered Clouds
1:00 PM 54 °F - 44 °F 59% 30.10 in 25 mi West 17.9 mph - -   Mostly Cloudy
1:00 PM 55.4 °F - 44.6 °F 67% 30.09 in 6.2 mi West 17.3 mph - N/A   Scattered Clouds
1:30 PM 57.2 °F - 44.6 °F 63% 30.06 in 6.2 mi West 18.4 mph - N/A   Mostly Cloudy
2:00 PM 55.4 °F - 44.6 °F 67% 30.06 in 6.2 mi West 17.3 mph - N/A   Mostly Cloudy
2:30 PM 55.4 °F - 44.6 °F 67% 30.09 in 6.2 mi West 17.3 mph - N/A   Mostly Cloudy
3:00 PM 55.4 °F - 44.6 °F 67% 30.09 in 6.2 mi West 16.1 mph - N/A   Mostly Cloudy
3:30 PM 55.4 °F - 46.4 °F 72% 30.09 in 6.2 mi West 17.3 mph - N/A   Mostly Cloudy
4:00 PM 57.2 °F - 46.4 °F 67% 30.06 in 6.2 mi West 13.8 mph - N/A   Mostly Cloudy
4:30 PM 57.2 °F - 46.4 °F 67% 30.06 in 6.2 mi West 15.0 mph - N/A   Mostly Cloudy
5:00 PM 55.4 °F - 46.4 °F 72% 30.06 in 6.2 mi WSW 9.2 mph - N/A   Mostly Cloudy
5:30 PM 55.4 °F - 46.4 °F 72% 30.06 in 6.2 mi WSW 12.7 mph - N/A   Mostly Cloudy
6:00 PM 55.4 °F - 48.2 °F 77% 30.06 in 6.2 mi WSW 13.8 mph - N/A   Mostly Cloudy
6:30 PM 55.4 °F - 48.2 °F 77% 30.04 in 6.2 mi WSW 12.7 mph - N/A   Mostly Cloudy
7:00 PM 55.4 °F - 48.2 °F 77% 30.04 in 6.2 mi SW 9.2 mph - N/A   Mostly Cloudy
7:30 PM 55.4 °F - 48.2 °F 77% 30.04 in 6.2 mi SW 9.2 mph - N/A   Mostly Cloudy
8:00 PM 55.4 °F - 48.2 °F 77% 30.04 in 6.2 mi SSW 10.4 mph - N/A   Mostly Cloudy
8:30 PM 55.4 °F - 48.2 °F 77% 30.04 in 6.2 mi SSW 9.2 mph - N/A   Mostly Cloudy
9:00 PM 55.4 °F - 48.2 °F 77% 30.04 in 6.2 mi SSW 10.4 mph - N/A   Mostly Cloudy
9:30 PM 55.4 °F - 48.2 °F 77% 30.01 in 6.2 mi SSW 9.2 mph - N/A   Mostly Cloudy
10:00 PM 55.4 °F - 48.2 °F 77% 30.01 in 6.2 mi SSW 16.1 mph - N/A   Mostly Cloudy
10:30 PM 53.6 °F - 48.2 °F 82% 30.01 in 6.2 mi SW 16.1 mph - N/A   Mostly Cloudy
11:00 PM 53.6 °F - 46.4 °F 77% 29.98 in 6.2 mi SW 15.0 mph - N/A   Mostly Cloudy
11:30 PM 53.6 °F - 46.4 °F 77% 29.98 in 6.2 mi SW 18.4 mph - N/A   Mostly Cloudy